Flag for U.S.A. Weather past 2 weeks in Breckenridge, Colorado, U.S.A.

37 °F


Feels Like: 37 °F
Forecast: 41 / 64 °F
Wind: No wind

Location: Copper Mountain - Red Cliff Pass

Current Time: Oct 4, 2015 at 1:50:11 AM

Latest Report: Oct 4, 2015 at 1:15 AM

Visibility: 10 mi

Pressure: 30.23 "Hg (21.06 "Hg at 2921m altitude)

Humidity: 87%

Dew point: 34 °F

Location of BreckenridgeLocation

Historic Weather in Breckenridge — Graph


Breckenridge temperature yesterday

Maximum temperature yesterday: 54 °F (at 2:15 PM)
Minimum temperature yesterday: 36 °F (at 12:35 AM)
Average temperature yesterday: 43 °F

Past Weeks' High & Low Weather Summary

High70 °F (Sep 24, 3:15 PM)87% (Oct 3, 12:35 AM)30.77 "Hg (Oct 3, 12:35 AM)
Low36 °F (Oct 3, 12:35 AM)6% (Sep 24, 3:15 PM)30.11 "Hg (Oct 3, 3:15 PM)
Average51 °F35%30.54 "Hg
* Reported Sep 19 12:14 AM — Oct 4 12:35 AM, Breckenridge, Weather by CustomWeather, © 2015

Note: Actual official high and low records may vary slightly from our data, if they occured in-between our weather recording intervals... More about our weather records


Breckenridge weather history for previous 24 hours

Time TempWeatherWind HumidityBarometerVisibility
12:35 AM
Sun, Oct 4
41 °FClear.3 mph57%30.22 "Hg10 mi
12:15 AM41 °FClear.7 mph57%30.21 "Hg10 mi
11:55 PM
Sat, Oct 3
41 °FClear.12 mph57%30.21 "Hg10 mi
11:35 PM41 °FClear.12 mph61%30.20 "Hg10 mi
11:15 PM41 °FClear.9 mph57%30.20 "Hg10 mi
9:35 PM41 °FThunderstorms. Clear.No wind61%30.18 "Hg10 mi
8:55 PM45 °FMostly cloudy.13 mph53%30.17 "Hg10 mi
8:35 PM45 °FPartly cloudy.8 mph53%30.17 "Hg10 mi
8:15 PM45 °FPartly cloudy.No wind53%30.16 "Hg10 mi
7:55 PM45 °FOvercast.7 mph49%30.15 "Hg10 mi
7:35 PM45 °FMore clouds than sun.9 mph46%30.15 "Hg10 mi
7:15 PM45 °FMostly cloudy.10 mph39%30.15 "Hg10 mi
6:55 PM45 °FCloudy.3 mph39%30.15 "Hg10 mi
6:35 PM45 °FMostly cloudy.3 mph37%30.15 "Hg7 mi
6:15 PM46 °FMore clouds than sun.26 mph27%30.12 "Hg10 mi
5:55 PM46 °FCloudy.3 mph37%30.13 "Hg10 mi
5:35 PM46 °FCloudy.12 mph32%30.13 "Hg10 mi
5:15 PM46 °FMore clouds than sun.7 mph34%30.13 "Hg10 mi
4:55 PM46 °FMostly cloudy.5 mph37%30.12 "Hg10 mi
4:35 PM48 °FPartly sunny.5 mph32%30.12 "Hg10 mi
3:15 PM50 °FOvercast.10 mph25%30.11 "Hg10 mi
2:55 PM54 °FMostly cloudy.3 mph24%30.12 "Hg10 mi
2:35 PM52 °FMore clouds than sun.9 mph26%30.12 "Hg10 mi
2:15 PM54 °FMore clouds than sun.14 mph26%30.12 "Hg10 mi
1:55 PM48 °FMore clouds than sun.13 mph29%30.12 "Hg10 mi
1:35 PM46 °FOvercast.12 mph32%30.12 "Hg10 mi
1:15 PM46 °FOvercast.15 mph32%30.13 "Hg10 mi
12:55 PM46 °FOvercast.9 mph32%30.14 "Hg10 mi
12:35 PM50 °FPartly sunny.10 mph28%30.14 "Hg10 mi
12:15 PM50 °FPartly sunny.9 mph30%30.14 "Hg10 mi
11:55 AM46 °FPartly sunny.9 mph34%30.15 "Hg10 mi
11:35 AM45 °FPartly sunny.7 mph37%30.15 "Hg10 mi
11:15 AM45 °FPartly sunny.10 mph34%30.15 "Hg10 mi
10:55 AM46 °FScattered clouds.6 mph34%30.15 "Hg10 mi
10:35 AM45 °FScattered clouds.5 mph34%30.15 "Hg10 mi
10:15 AM45 °FSunny.7 mph34%30.15 "Hg10 mi
9:55 AM45 °FSunny.9 mph37%30.15 "Hg10 mi
9:35 AM45 °FSunny.7 mph37%30.15 "Hg10 mi
9:15 AM45 °FSunny.10 mph39%30.15 "Hg10 mi
8:55 AM43 °FSunny.8 mph42%30.15 "Hg10 mi
8:35 AM41 °FSunny.9 mph45%30.15 "Hg10 mi
8:15 AM41 °FSunny.9 mph42%30.15 "Hg10 mi
7:55 AM39 °FClear.8 mph45%30.15 "Hg10 mi
7:35 AM37 °FClear.8 mph48%30.15 "Hg10 mi
7:15 AM37 °FClear.14 mph56%30.15 "Hg10 mi
6:55 AM37 °FClear.14 mph56%30.14 "Hg10 mi
6:35 AM37 °FClear.12 mph56%30.15 "Hg10 mi
6:15 AM37 °FClear.12 mph52%30.15 "Hg10 mi
5:55 AM37 °FClear.10 mph52%30.15 "Hg10 mi
5:35 AM37 °FClear.14 mph56%30.15 "Hg10 mi
5:15 AM37 °FClear.8 mph56%30.15 "Hg10 mi
4:55 AM37 °FClear.9 mph56%30.15 "Hg10 mi
4:35 AM37 °FClear.7 mph56%30.15 "Hg10 mi
4:15 AM37 °FPassing clouds.14 mph60%30.14 "Hg10 mi
3:55 AM37 °FPassing clouds.15 mph65%30.15 "Hg10 mi
2:35 AM37 °FMostly cloudy.14 mph70%30.18 "Hg10 mi
2:15 AM37 °FPartly cloudy.9 mph70%30.18 "Hg10 mi
1:55 AM37 °FPassing clouds.7 mph70%30.19 "Hg10 mi
1:35 AM37 °FPassing clouds.12 mph81%30.19 "Hg10 mi
1:15 AM37 °FPartly cloudy.17 mph81%30.19 "Hg10 mi
Weather by CustomWeather, © 2015

See weather overviewHow to use our weather pages